This is the latest recevied weather packets stored in our database for station/object K4MUW-4. If no packets are shown the sender has not sent any weather packets the latest 1 day(s).
| Time | Temp. | Humidity | Pressure | Rain* | Wind** | Luminosity | Snow |
|---|---|---|---|---|---|---|---|
| 1778006851 | 25° C | 25% | 1011 hPa | 0 mm | 1.79 m/s, 184° | - | - |
| 1778006494 | 25° C | 25% | 1011 hPa | 0 mm | 0 m/s | - | - |
| 1778006189 | 25° C | 24% | 1011 hPa | 0 mm | 1.34 m/s, 170° | - | - |
| 1778005884 | 25° C | 24% | 1012 hPa | 0 mm | 2.24 m/s, 238° | - | - |
| 1778005574 | 25° C | 24% | 1012 hPa | 0 mm | 1.79 m/s, 199° | - | - |
| 1778005274 | 25° C | 26% | 1012 hPa | 0 mm | 1.34 m/s, 251° | - | - |
| 1778004974 | 25° C | 26% | 1011 hPa | 0 mm | 1.79 m/s, 189° | - | - |
| 1778004673 | 25° C | 26% | 1011 hPa | 0 mm | 2.24 m/s, 218° | - | - |
| 1778004373 | 25° C | 26% | 1011 hPa | 0 mm | 1.34 m/s, 162° | - | - |
| 1778004073 | 25° C | 26% | 1012 hPa | 0 mm | 2.68 m/s, 187° | - | - |
| 1778003772 | 24.44° C | 26% | 1012 hPa | 0 mm | 1.79 m/s, 152° | - | - |
| 1778003472 | 24.44° C | 25% | 1012 hPa | 0 mm | 1.34 m/s, 205° | - | - |
| 1778003172 | 24.44° C | 25% | 1012 hPa | 0 mm | 2.68 m/s, 121° | - | - |
| 1778002871 | 24.44° C | 28% | 1012 hPa | 0 mm | 1.79 m/s, 196° | - | - |
| 1778002571 | 25° C | 28% | 1012 hPa | 0 mm | 1.79 m/s, 211° | - | - |
| 1778002270 | 25° C | 30% | 1012 hPa | 0 mm | 1.79 m/s, 197° | - | - |
| 1778001970 | 24.44° C | 30% | 1012 hPa | 0 mm | 2.68 m/s, 189° | - | - |
| 1778001670 | 24.44° C | 30% | 1012 hPa | 0 mm | 2.24 m/s, 223° | - | - |
| 1778001369 | 24.44° C | 31% | 1012 hPa | 0 mm | 1.34 m/s, 121° | - | - |
| 1778001069 | 24.44° C | 32% | 1012 hPa | 0 mm | 2.24 m/s, 272° | - | - |
| 1778000768 | 23.89° C | 31% | 1012 hPa | 0 mm | 2.24 m/s, 186° | - | - |
| 1778000468 | 23.89° C | 31% | 1012 hPa | 0 mm | 2.24 m/s, 179° | - | - |
| 1778000168 | 23.89° C | 31% | 1012 hPa | 0 mm | 4.02 m/s, 190° | - | - |
| 1777999867 | 23.89° C | 32% | 1012 hPa | 0 mm | 1.79 m/s, 182° | - | - |
| 1777999567 | 23.33° C | 32% | 1012 hPa | 0 mm | 1.79 m/s, 131° | - | - |
* Rain latest hour (hover to see other rain measurements)
** Current wind speed in m/s (hover to see current wind gust speed)